Find PRAETORIAN SDA_501

NORAD ID: 100059 Int'l Des: 2026-163A Country: USA operational

Aktuelle Ansicht

3D-Globus wird geladen...

About PRAETORIAN SDA_501

PRAETORIAN SDA_501 (NORAD 100059) is a satellite of USA.

Nächste Überflüge

Passes for default location (London). Set your location on the main map for personalized predictions.

Höhenverlauf

Loading altitude history...

Zweizeiliger Elementsatz

1 A0059U 26206.56543032 .00000124 00000-0 98147-4 0 9998
2 A0059 81.4839 301.7567 0013225 185.3874 174.7144 13.85489540 1216
Epoch: 25. Juli 2026 • Age: 11 hours

Aktueller Status

Höhe 938.6 km
Apogäum / Perigäum N/A
Geschwindigkeit 7.39 km/s
Subsatellitenpunkt 22.93°N, 163.12°E
Typ other

Most Searched